Year,Month,Day,Hour,Minute,Value (Times are PST for temperature in C)
2022,04,24,00,00,7.30
2022,04,24,00,01,7.30
2022,04,24,00,02,7.30
2022,04,24,00,03,7.30
2022,04,24,00,04,7.30
2022,04,24,00,05,7.30
2022,04,24,00,06,7.30
2022,04,24,00,07,7.30
2022,04,24,00,08,7.30
2022,04,24,00,09,7.30
2022,04,24,00,10,7.30
2022,04,24,00,11,7.30
2022,04,24,00,12,7.30
2022,04,24,00,13,7.30
2022,04,24,00,14,7.30
2022,04,24,00,15,7.30
2022,04,24,00,16,7.40
2022,04,24,00,17,7.30
2022,04,24,00,18,7.30
2022,04,24,00,19,7.30
2022,04,24,00,20,7.30
2022,04,24,00,21,7.30
2022,04,24,00,22,7.30
2022,04,24,00,23,7.30
2022,04,24,00,24,7.30
2022,04,24,00,25,7.30
2022,04,24,00,26,7.30
2022,04,24,00,27,7.40
2022,04,24,00,28,7.40
2022,04,24,00,29,7.40
2022,04,24,00,30,7.40
2022,04,24,00,31,7.40
2022,04,24,00,32,7.40
2022,04,24,00,33,7.40
2022,04,24,00,34,7.40
2022,04,24,00,35,7.40
2022,04,24,00,36,7.40
2022,04,24,00,37,7.40
2022,04,24,00,38,7.40
2022,04,24,00,39,7.50
2022,04,24,00,40,7.40
2022,04,24,00,41,7.40
2022,04,24,00,42,7.40
2022,04,24,00,43,7.40
2022,04,24,00,44,7.40
2022,04,24,00,45,7.40
2022,04,24,00,46,7.40
2022,04,24,00,47,7.40
2022,04,24,00,48,7.40
2022,04,24,00,49,7.40
2022,04,24,00,50,7.40
2022,04,24,00,51,7.40
2022,04,24,00,52,7.50
2022,04,24,00,53,7.40
2022,04,24,00,54,7.50
2022,04,24,00,55,7.50
2022,04,24,00,56,7.40
2022,04,24,00,57,7.40
2022,04,24,00,58,7.40
2022,04,24,00,59,7.40
2022,04,24,01,00,7.40
2022,04,24,01,01,7.40
2022,04,24,01,02,7.40
2022,04,24,01,03,7.40
2022,04,24,01,04,7.40
2022,04,24,01,05,7.40
2022,04,24,01,06,7.40
2022,04,24,01,07,7.40
2022,04,24,01,08,7.40
2022,04,24,01,09,7.40
2022,04,24,01,10,7.40
2022,04,24,01,11,7.40
2022,04,24,01,12,7.40
2022,04,24,01,13,7.40
2022,04,24,01,14,7.40
2022,04,24,01,15,7.40
2022,04,24,01,16,7.40
2022,04,24,01,17,7.40
2022,04,24,01,18,7.40
2022,04,24,01,19,7.40
2022,04,24,01,20,7.30
2022,04,24,01,21,7.30
2022,04,24,01,22,7.30
2022,04,24,01,23,7.30
2022,04,24,01,24,7.30
2022,04,24,01,25,7.30
2022,04,24,01,26,7.30
2022,04,24,01,27,7.30
2022,04,24,01,28,7.20
2022,04,24,01,29,7.20
2022,04,24,01,30,7.20
2022,04,24,01,31,7.20
2022,04,24,01,32,7.20
2022,04,24,01,33,7.20
2022,04,24,01,34,7.20
2022,04,24,01,35,7.20
2022,04,24,01,36,7.20
2022,04,24,01,37,7.20
2022,04,24,01,38,7.10
2022,04,24,01,39,7.20
2022,04,24,01,40,7.20
2022,04,24,01,41,7.20
2022,04,24,01,42,7.20
2022,04,24,01,43,7.20
2022,04,24,01,44,7.20
2022,04,24,01,45,7.20
2022,04,24,01,46,7.20
2022,04,24,01,47,7.20
2022,04,24,01,48,7.20
2022,04,24,01,49,7.20
2022,04,24,01,50,7.20
2022,04,24,01,51,7.20
2022,04,24,01,52,7.10
2022,04,24,01,53,7.10
2022,04,24,01,54,7.10
2022,04,24,01,55,7.10
2022,04,24,01,56,7.00
2022,04,24,01,57,7.00
2022,04,24,01,58,7.00
2022,04,24,01,59,6.90
2022,04,24,02,00,6.90
2022,04,24,02,01,6.90
2022,04,24,02,02,6.90
2022,04,24,02,03,6.80
2022,04,24,02,04,6.80
2022,04,24,02,05,6.80
2022,04,24,02,06,6.80
2022,04,24,02,07,6.80
2022,04,24,02,08,6.80
2022,04,24,02,09,6.80
2022,04,24,02,10,6.80
2022,04,24,02,11,6.70
2022,04,24,02,12,6.70
2022,04,24,02,13,6.70
2022,04,24,02,14,6.70
2022,04,24,02,15,6.70
2022,04,24,02,16,6.70
2022,04,24,02,17,6.70
2022,04,24,02,18,6.70
2022,04,24,02,19,6.70
2022,04,24,02,20,6.70
2022,04,24,02,21,6.70
2022,04,24,02,22,6.70
2022,04,24,02,23,6.70
2022,04,24,02,24,6.70
2022,04,24,02,25,6.70
2022,04,24,02,26,6.70
2022,04,24,02,27,6.70
2022,04,24,02,28,6.70
2022,04,24,02,29,6.70
2022,04,24,02,30,6.70
2022,04,24,02,31,6.70
2022,04,24,02,32,6.70
2022,04,24,02,33,6.70
2022,04,24,02,34,6.70
2022,04,24,02,35,6.70
2022,04,24,02,36,6.70
2022,04,24,02,37,6.70
2022,04,24,02,38,6.70
2022,04,24,02,39,6.80
2022,04,24,02,40,6.80
2022,04,24,02,41,6.80
2022,04,24,02,42,6.80
2022,04,24,02,43,6.80
2022,04,24,02,44,6.80
2022,04,24,02,45,6.90
2022,04,24,02,46,6.90
2022,04,24,02,47,7.00
2022,04,24,02,48,7.00
2022,04,24,02,49,7.00
2022,04,24,02,50,7.00
2022,04,24,02,51,7.00
2022,04,24,02,52,7.00
2022,04,24,02,53,7.00
2022,04,24,02,54,6.90
2022,04,24,02,55,6.90
2022,04,24,02,56,6.80
2022,04,24,02,57,6.80
2022,04,24,02,58,6.80
2022,04,24,02,59,6.70
2022,04,24,03,00,6.70
2022,04,24,03,01,6.70
2022,04,24,03,02,6.70
2022,04,24,03,03,6.70
2022,04,24,03,04,6.70
2022,04,24,03,05,6.70
2022,04,24,03,06,6.70
2022,04,24,03,07,6.70
2022,04,24,03,08,6.70
2022,04,24,03,09,6.70
2022,04,24,03,10,6.70
2022,04,24,03,11,6.70
2022,04,24,03,12,6.70
2022,04,24,03,13,6.70
2022,04,24,03,14,6.70
2022,04,24,03,15,6.70
2022,04,24,03,16,6.60
2022,04,24,03,17,6.60
2022,04,24,03,18,6.60
2022,04,24,03,19,6.60
2022,04,24,03,20,6.60
2022,04,24,03,21,6.60
2022,04,24,03,22,6.60
2022,04,24,03,23,6.60
2022,04,24,03,24,6.60
2022,04,24,03,25,6.70
2022,04,24,03,26,6.70
2022,04,24,03,27,6.70
2022,04,24,03,28,6.70
2022,04,24,03,29,6.70
2022,04,24,03,30,6.70
2022,04,24,03,31,6.70
2022,04,24,03,32,6.70
2022,04,24,03,33,6.80
2022,04,24,03,34,6.80
2022,04,24,03,35,6.80
2022,04,24,03,36,6.80
2022,04,24,03,37,6.90
2022,04,24,03,38,6.90
2022,04,24,03,39,6.90
2022,04,24,03,40,6.90
2022,04,24,03,41,7.00
2022,04,24,03,42,7.00
2022,04,24,03,43,7.00
2022,04,24,03,44,7.00
2022,04,24,03,45,7.00
2022,04,24,03,46,7.00
2022,04,24,03,47,7.00
2022,04,24,03,48,7.00
2022,04,24,03,49,7.00
2022,04,24,03,50,7.00
2022,04,24,03,51,7.00
2022,04,24,03,52,7.00
2022,04,24,03,53,7.10
2022,04,24,03,54,7.10
2022,04,24,03,55,7.10
2022,04,24,03,56,7.10
2022,04,24,03,57,7.10
2022,04,24,03,58,7.10
2022,04,24,03,59,7.10
2022,04,24,04,00,7.00
2022,04,24,04,01,7.00
2022,04,24,04,02,7.00
2022,04,24,04,03,7.00
2022,04,24,04,04,7.00
2022,04,24,04,05,7.00
2022,04,24,04,06,7.00
2022,04,24,04,07,7.00
2022,04,24,04,08,7.00
2022,04,24,04,09,7.00
2022,04,24,04,10,7.00
2022,04,24,04,11,7.00
2022,04,24,04,12,7.00
2022,04,24,04,13,7.00
2022,04,24,04,14,6.90
2022,04,24,04,15,6.90
2022,04,24,04,16,6.90
2022,04,24,04,17,6.90
2022,04,24,04,18,6.90
2022,04,24,04,19,6.80
2022,04,24,04,20,6.80
2022,04,24,04,21,6.80
2022,04,24,04,22,6.70
2022,04,24,04,23,6.70
2022,04,24,04,24,6.70
2022,04,24,04,25,6.70
2022,04,24,04,26,6.60
2022,04,24,04,27,6.60
2022,04,24,04,28,6.60
2022,04,24,04,29,6.60
2022,04,24,04,30,6.50
2022,04,24,04,31,6.50
2022,04,24,04,32,6.50
2022,04,24,04,33,6.40
2022,04,24,04,34,6.40
2022,04,24,04,35,6.40
2022,04,24,04,36,6.40
2022,04,24,04,37,6.30
2022,04,24,04,38,6.20
2022,04,24,04,39,6.10
2022,04,24,04,40,5.90
2022,04,24,04,41,5.80
2022,04,24,04,42,5.70
2022,04,24,04,43,5.60
2022,04,24,04,44,5.50
2022,04,24,04,45,5.40
2022,04,24,04,46,5.30
2022,04,24,04,47,5.20
2022,04,24,04,48,5.10
2022,04,24,04,49,5.10
2022,04,24,04,50,5.00
2022,04,24,04,51,4.90
2022,04,24,04,52,4.90
2022,04,24,04,53,4.90
2022,04,24,04,54,4.90
2022,04,24,04,55,4.90
2022,04,24,04,56,4.90
2022,04,24,04,57,4.90
2022,04,24,04,58,4.90
2022,04,24,04,59,4.90
2022,04,24,05,00,4.90
2022,04,24,05,01,4.90
2022,04,24,05,02,4.90
2022,04,24,05,03,4.90
2022,04,24,05,04,4.90
2022,04,24,05,05,4.90
2022,04,24,05,06,4.90
2022,04,24,05,07,4.90
2022,04,24,05,08,4.90
2022,04,24,05,09,4.90
2022,04,24,05,10,4.90
2022,04,24,05,11,5.00
2022,04,24,05,12,5.00
2022,04,24,05,13,5.00
2022,04,24,05,14,5.00
2022,04,24,05,15,5.00
2022,04,24,05,16,5.00
2022,04,24,05,17,5.00
2022,04,24,05,18,5.00
2022,04,24,05,19,5.00
2022,04,24,05,20,5.00
2022,04,24,05,21,5.10
2022,04,24,05,22,5.10
2022,04,24,05,23,5.10
2022,04,24,05,24,5.10
2022,04,24,05,25,5.10
2022,04,24,05,26,5.10
2022,04,24,05,27,5.20
2022,04,24,05,28,5.20
2022,04,24,05,29,5.30
2022,04,24,05,30,5.30
2022,04,24,05,31,5.40
2022,04,24,05,32,5.50
2022,04,24,05,33,5.50
2022,04,24,05,34,5.60
2022,04,24,05,35,5.60
2022,04,24,05,36,5.70
2022,04,24,05,37,5.70
2022,04,24,05,38,5.70
2022,04,24,05,39,5.80
2022,04,24,05,40,5.80
2022,04,24,05,41,5.80
2022,04,24,05,42,5.70
2022,04,24,05,43,5.60
2022,04,24,05,44,5.50
2022,04,24,05,45,5.40
2022,04,24,05,46,5.40
2022,04,24,05,47,5.30
2022,04,24,05,48,5.30
2022,04,24,05,49,5.20
2022,04,24,05,50,5.20
2022,04,24,05,51,5.20
2022,04,24,05,52,5.20
2022,04,24,05,53,5.20
2022,04,24,05,54,5.20
2022,04,24,05,55,5.20
2022,04,24,05,56,5.20
2022,04,24,05,57,5.20
2022,04,24,05,58,5.20
2022,04,24,05,59,5.20
2022,04,24,06,00,5.20
2022,04,24,06,01,5.20
2022,04,24,06,02,5.20
2022,04,24,06,03,5.20
2022,04,24,06,04,5.20
2022,04,24,06,05,5.20
2022,04,24,06,06,5.20
2022,04,24,06,07,5.20
2022,04,24,06,08,5.20
2022,04,24,06,09,5.20
2022,04,24,06,10,5.30
2022,04,24,06,11,5.30
2022,04,24,06,12,5.30
2022,04,24,06,13,5.30
2022,04,24,06,14,5.30
2022,04,24,06,15,5.30
2022,04,24,06,16,5.40
2022,04,24,06,17,5.40
2022,04,24,06,18,5.40
2022,04,24,06,19,5.40
2022,04,24,06,20,5.50
2022,04,24,06,21,5.50
2022,04,24,06,22,5.50
2022,04,24,06,23,5.50
2022,04,24,06,24,5.50
2022,04,24,06,25,5.40
2022,04,24,06,26,5.40
2022,04,24,06,27,5.40
2022,04,24,06,28,5.40
2022,04,24,06,29,5.30
2022,04,24,06,30,5.30
2022,04,24,06,31,5.30
2022,04,24,06,32,5.30
2022,04,24,06,33,5.30
2022,04,24,06,34,5.30
2022,04,24,06,35,5.30
2022,04,24,06,36,5.30
2022,04,24,06,37,5.30
2022,04,24,06,38,5.30
2022,04,24,06,39,5.40
2022,04,24,06,40,5.40
2022,04,24,06,41,5.40
2022,04,24,06,42,5.40
2022,04,24,06,43,5.40
2022,04,24,06,44,5.50
2022,04,24,06,45,5.50
2022,04,24,06,46,5.50
2022,04,24,06,47,5.60
2022,04,24,06,48,5.60
2022,04,24,06,49,5.60
2022,04,24,06,50,5.60
2022,04,24,06,51,5.70
2022,04,24,06,52,5.70
2022,04,24,06,53,5.70
2022,04,24,06,54,5.80
2022,04,24,06,55,5.80
2022,04,24,06,56,5.80
2022,04,24,06,57,5.80
2022,04,24,06,58,5.90
2022,04,24,06,59,5.90
2022,04,24,07,00,5.90
2022,04,24,07,01,5.90
2022,04,24,07,02,5.90
2022,04,24,07,03,6.00
2022,04,24,07,04,6.00
2022,04,24,07,05,6.00
2022,04,24,07,06,6.00
2022,04,24,07,07,5.90
2022,04,24,07,08,5.90
2022,04,24,07,09,5.90
2022,04,24,07,10,5.90
2022,04,24,07,11,5.90
2022,04,24,07,12,5.80
2022,04,24,07,13,5.80
2022,04,24,07,14,5.80
2022,04,24,07,15,5.80
2022,04,24,07,16,5.80
2022,04,24,07,17,5.80
2022,04,24,07,18,5.80
2022,04,24,07,19,5.80
2022,04,24,07,20,5.80
2022,04,24,07,21,5.80
2022,04,24,07,22,5.90
2022,04,24,07,23,5.90
2022,04,24,07,24,5.90
2022,04,24,07,25,5.90
2022,04,24,07,26,6.00
2022,04,24,07,27,6.00
2022,04,24,07,28,6.10
2022,04,24,07,29,6.10
2022,04,24,07,30,6.10
2022,04,24,07,31,6.20
2022,04,24,07,32,6.20
2022,04,24,07,33,6.20
2022,04,24,07,34,6.30
2022,04,24,07,35,6.30
2022,04,24,07,36,6.40
2022,04,24,07,37,6.40
2022,04,24,07,38,6.50
2022,04,24,07,39,6.50
2022,04,24,07,40,6.60
2022,04,24,07,41,6.60
2022,04,24,07,42,6.60
2022,04,24,07,43,6.70
2022,04,24,07,44,6.70
2022,04,24,07,45,6.70
2022,04,24,07,46,6.70
2022,04,24,07,47,6.70
2022,04,24,07,48,6.70
2022,04,24,07,49,6.70
2022,04,24,07,50,6.70
2022,04,24,07,51,6.70
2022,04,24,07,52,6.80
2022,04,24,07,53,6.80
2022,04,24,07,54,6.80
2022,04,24,07,55,6.90
2022,04,24,07,56,7.00
2022,04,24,07,57,7.00
2022,04,24,07,58,7.10
2022,04,24,07,59,7.10
2022,04,24,08,00,7.10
2022,04,24,08,01,7.10
2022,04,24,08,02,7.10
2022,04,24,08,03,7.20
2022,04,24,08,04,7.20
2022,04,24,08,05,7.20
2022,04,24,08,06,7.30
2022,04,24,08,07,7.30
2022,04,24,08,08,7.30
2022,04,24,08,09,7.40
2022,04,24,08,10,7.40
2022,04,24,08,11,7.50
2022,04,24,08,12,7.50
2022,04,24,08,13,7.60
2022,04,24,08,14,7.70
2022,04,24,08,15,7.70
2022,04,24,08,16,7.70
2022,04,24,08,17,7.70
2022,04,24,08,18,7.70
2022,04,24,08,19,7.70
2022,04,24,08,20,7.70
2022,04,24,08,21,7.80
2022,04,24,08,22,7.80
2022,04,24,08,23,7.80
2022,04,24,08,24,7.90
2022,04,24,08,25,7.90
2022,04,24,08,26,8.00
2022,04,24,08,27,8.00
2022,04,24,08,28,8.00
2022,04,24,08,29,8.00
2022,04,24,08,30,7.90
2022,04,24,08,31,7.90
2022,04,24,08,32,7.90
2022,04,24,08,33,7.90
2022,04,24,08,34,7.90
2022,04,24,08,35,7.90
2022,04,24,08,36,7.90
2022,04,24,08,37,8.00
2022,04,24,08,38,8.00
2022,04,24,08,39,8.10
2022,04,24,08,40,8.10
2022,04,24,08,41,8.10
2022,04,24,08,42,8.10
2022,04,24,08,43,8.10
2022,04,24,08,44,8.10
2022,04,24,08,45,8.20
2022,04,24,08,46,8.20
2022,04,24,08,47,8.20
2022,04,24,08,48,8.20
2022,04,24,08,49,8.20
2022,04,24,08,50,8.20
2022,04,24,08,51,8.20
2022,04,24,08,52,8.20
2022,04,24,08,53,8.30
2022,04,24,08,54,8.40
2022,04,24,08,55,8.50
2022,04,24,08,56,8.50
2022,04,24,08,57,8.60
2022,04,24,08,58,8.70
2022,04,24,08,59,8.80
2022,04,24,09,00,8.80
2022,04,24,09,01,8.90
2022,04,24,09,02,9.00
2022,04,24,09,03,9.00
2022,04,24,09,04,9.10
2022,04,24,09,05,9.20
2022,04,24,09,06,9.20
2022,04,24,09,07,9.20
2022,04,24,09,08,9.30
2022,04,24,09,09,9.30
2022,04,24,09,10,9.40
2022,04,24,09,11,9.40
2022,04,24,09,12,9.40
2022,04,24,09,13,9.50
2022,04,24,09,14,9.60
2022,04,24,09,15,9.60
2022,04,24,09,16,9.60
2022,04,24,09,17,9.70
2022,04,24,09,18,9.70
2022,04,24,09,19,9.70
2022,04,24,09,20,9.70
2022,04,24,09,21,9.80
2022,04,24,09,22,9.80
2022,04,24,09,23,9.90
2022,04,24,09,24,9.90
2022,04,24,09,25,10.00
2022,04,24,09,26,10.00
2022,04,24,09,27,10.10
2022,04,24,09,28,10.20
2022,04,24,09,29,10.20
2022,04,24,09,30,10.30
2022,04,24,09,31,10.40
2022,04,24,09,32,10.50
2022,04,24,09,33,10.50
2022,04,24,09,34,10.50
2022,04,24,09,35,10.60
2022,04,24,09,36,10.60
2022,04,24,09,37,10.60
2022,04,24,09,38,10.70
2022,04,24,09,39,10.70
2022,04,24,09,40,10.70
2022,04,24,09,41,10.70
2022,04,24,09,42,10.70
2022,04,24,09,43,10.70
2022,04,24,09,44,10.80
2022,04,24,09,45,10.80
2022,04,24,09,46,10.80
2022,04,24,09,47,10.90
2022,04,24,09,48,10.90
2022,04,24,09,49,10.90
2022,04,24,09,50,10.90
2022,04,24,09,51,10.80
2022,04,24,09,52,10.80
2022,04,24,09,53,10.80
2022,04,24,09,54,10.80
2022,04,24,09,55,10.70
2022,04,24,09,56,10.70
2022,04,24,09,57,10.80
2022,04,24,09,58,10.80
2022,04,24,09,59,10.80
2022,04,24,10,00,10.80
2022,04,24,10,01,10.90
2022,04,24,10,02,10.90
2022,04,24,10,03,11.00
2022,04,24,10,04,11.00
2022,04,24,10,05,11.10
2022,04,24,10,06,11.10
2022,04,24,10,07,11.20
2022,04,24,10,08,11.20
2022,04,24,10,09,11.20
2022,04,24,10,10,11.20
2022,04,24,10,11,11.30
2022,04,24,10,12,11.30
2022,04,24,10,13,11.40
2022,04,24,10,14,11.40
2022,04,24,10,15,11.50
2022,04,24,10,16,11.60
2022,04,24,10,17,11.60
2022,04,24,10,18,11.50
2022,04,24,10,19,11.60
2022,04,24,10,20,11.60
2022,04,24,10,21,11.50
2022,04,24,10,22,11.60
2022,04,24,10,23,11.60
2022,04,24,10,24,11.60
2022,04,24,10,25,11.60
2022,04,24,10,26,11.50
2022,04,24,10,27,11.50
2022,04,24,10,28,11.60
2022,04,24,10,29,11.60
2022,04,24,10,30,11.60
2022,04,24,10,31,11.60
2022,04,24,10,32,11.70
2022,04,24,10,33,11.70
2022,04,24,10,34,11.70
2022,04,24,10,35,11.80
2022,04,24,10,36,11.80
2022,04,24,10,37,11.90
2022,04,24,10,38,11.90
2022,04,24,10,39,11.90
2022,04,24,10,40,12.00
2022,04,24,10,41,12.00
2022,04,24,10,42,12.10
2022,04,24,10,43,12.10
2022,04,24,10,44,12.10
2022,04,24,10,45,12.10
2022,04,24,10,46,12.10
2022,04,24,10,47,12.00
2022,04,24,10,48,11.90
2022,04,24,10,49,11.90
2022,04,24,10,50,11.90
2022,04,24,10,51,12.00
2022,04,24,10,52,12.00
2022,04,24,10,53,12.10
2022,04,24,10,54,12.20
2022,04,24,10,55,12.30
2022,04,24,10,56,12.30
2022,04,24,10,57,12.30
2022,04,24,10,58,12.30
2022,04,24,10,59,12.30
2022,04,24,11,00,12.30
2022,04,24,11,01,12.30
2022,04,24,11,02,12.20
2022,04,24,11,03,12.20
2022,04,24,11,04,12.20
2022,04,24,11,05,12.20
2022,04,24,11,06,12.20
2022,04,24,11,07,12.20
2022,04,24,11,08,12.20
2022,04,24,11,09,12.20
2022,04,24,11,10,12.20
2022,04,24,11,11,12.30
2022,04,24,11,12,12.30
2022,04,24,11,13,12.30
2022,04,24,11,14,12.30
2022,04,24,11,15,12.40
2022,04,24,11,16,12.40
2022,04,24,11,17,12.50
2022,04,24,11,18,12.60
2022,04,24,11,19,12.60
2022,04,24,11,20,12.40
2022,04,24,11,21,12.30
2022,04,24,11,22,12.20
2022,04,24,11,23,12.10
2022,04,24,11,24,12.00
2022,04,24,11,25,11.80
2022,04,24,11,26,11.70
2022,04,24,11,27,11.60
2022,04,24,11,28,11.60
2022,04,24,11,29,11.60
2022,04,24,11,30,11.60
2022,04,24,11,31,11.60
2022,04,24,11,32,11.70
2022,04,24,11,33,11.70
2022,04,24,11,34,11.70
2022,04,24,11,35,11.70
2022,04,24,11,36,11.60
2022,04,24,11,37,11.60
2022,04,24,11,38,11.60
2022,04,24,11,39,11.60
2022,04,24,11,40,11.60
2022,04,24,11,41,11.60
2022,04,24,11,42,11.50
2022,04,24,11,43,11.50
2022,04,24,11,44,11.50
2022,04,24,11,45,11.60
2022,04,24,11,46,11.50
2022,04,24,11,47,11.50
2022,04,24,11,48,11.50
2022,04,24,11,49,11.60
2022,04,24,11,50,11.60
2022,04,24,11,51,11.70
2022,04,24,11,52,11.70
2022,04,24,11,53,11.70
2022,04,24,11,54,11.70
2022,04,24,11,55,11.70
2022,04,24,11,56,11.70
2022,04,24,11,57,11.70
2022,04,24,11,58,11.70
2022,04,24,11,59,11.60
2022,04,24,12,00,11.60
2022,04,24,12,01,11.60
2022,04,24,12,02,11.60
2022,04,24,12,03,11.70
2022,04,24,12,04,11.70
2022,04,24,12,05,11.80
2022,04,24,12,06,11.80
2022,04,24,12,07,11.80
2022,04,24,12,08,11.80
2022,04,24,12,09,11.70
2022,04,24,12,10,11.70
2022,04,24,12,11,11.60
2022,04,24,12,12,11.60
2022,04,24,12,13,11.70
2022,04,24,12,14,11.70
2022,04,24,12,15,11.70
2022,04,24,12,16,11.80
2022,04,24,12,17,11.80
2022,04,24,12,18,11.90
2022,04,24,12,19,12.00
2022,04,24,12,20,12.10
2022,04,24,12,21,12.10
2022,04,24,12,22,12.20
2022,04,24,12,23,12.30
2022,04,24,12,24,12.20
2022,04,24,12,25,12.20
2022,04,24,12,26,12.10
2022,04,24,12,27,12.10
2022,04,24,12,28,12.10
2022,04,24,12,29,12.10
2022,04,24,12,30,12.20
2022,04,24,12,31,12.30
2022,04,24,12,32,12.30
2022,04,24,12,33,12.30
2022,04,24,12,34,12.30
2022,04,24,12,35,12.30
2022,04,24,12,36,12.40
2022,04,24,12,37,12.40
2022,04,24,12,38,12.40
2022,04,24,12,39,12.40
2022,04,24,12,40,12.40
2022,04,24,12,41,12.40
2022,04,24,12,42,12.40
2022,04,24,12,43,12.40
2022,04,24,12,44,12.40
2022,04,24,12,45,12.40
2022,04,24,12,46,12.40
2022,04,24,12,47,12.30
2022,04,24,12,48,12.40
2022,04,24,12,49,12.30
2022,04,24,12,50,12.30
2022,04,24,12,51,12.30
2022,04,24,12,52,12.20
2022,04,24,12,53,12.00
2022,04,24,12,54,11.90
2022,04,24,12,55,11.90
2022,04,24,12,56,12.00
2022,04,24,12,57,12.00
2022,04,24,12,58,12.10
2022,04,24,12,59,12.20
2022,04,24,13,00,12.20
2022,04,24,13,01,12.20
2022,04,24,13,02,12.20
2022,04,24,13,03,12.20
2022,04,24,13,04,12.40
2022,04,24,13,05,12.50
2022,04,24,13,06,12.60
2022,04,24,13,07,12.70
2022,04,24,13,08,12.80
2022,04,24,13,09,12.80
2022,04,24,13,10,12.90
2022,04,24,13,11,12.90
2022,04,24,13,12,13.00
2022,04,24,13,13,13.10
2022,04,24,13,14,13.20
2022,04,24,13,15,13.30
2022,04,24,13,16,13.30
2022,04,24,13,17,13.30
2022,04,24,13,18,13.30
2022,04,24,13,19,13.40
2022,04,24,13,20,13.50
2022,04,24,13,21,13.50
2022,04,24,13,22,13.60
2022,04,24,13,23,13.60
2022,04,24,13,24,13.60
2022,04,24,13,25,13.50
2022,04,24,13,26,13.50
2022,04,24,13,27,13.50
2022,04,24,13,28,13.50
2022,04,24,13,29,13.40
2022,04,24,13,30,13.40
2022,04,24,13,31,13.40
2022,04,24,13,32,13.40
2022,04,24,13,33,13.50
2022,04,24,13,34,13.50
2022,04,24,13,35,13.50
2022,04,24,13,36,13.60
2022,04,24,13,37,13.60
2022,04,24,13,38,13.60
2022,04,24,13,39,13.60
2022,04,24,13,40,13.70
2022,04,24,13,41,13.70
2022,04,24,13,42,13.80
2022,04,24,13,43,13.80
2022,04,24,13,44,13.80
2022,04,24,13,45,13.80
2022,04,24,13,46,13.80
2022,04,24,13,47,13.90
2022,04,24,13,48,13.90
2022,04,24,13,49,13.90
2022,04,24,13,50,13.90
2022,04,24,13,51,13.90
2022,04,24,13,52,13.80
2022,04,24,13,53,13.80
2022,04,24,13,54,13.80
2022,04,24,13,55,13.70
2022,04,24,13,56,13.60
2022,04,24,13,57,13.60
2022,04,24,13,58,13.50
2022,04,24,13,59,13.40
2022,04,24,14,00,13.30
2022,04,24,14,01,13.20
2022,04,24,14,02,13.20
2022,04,24,14,03,13.20
2022,04,24,14,04,13.20
2022,04,24,14,05,13.10
2022,04,24,14,06,13.10
2022,04,24,14,07,13.10
2022,04,24,14,08,13.10
2022,04,24,14,09,13.10
2022,04,24,14,10,13.10
2022,04,24,14,11,13.10
2022,04,24,14,12,13.00
2022,04,24,14,13,13.00
2022,04,24,14,14,13.10
2022,04,24,14,15,13.10
2022,04,24,14,16,13.20
2022,04,24,14,17,13.30
2022,04,24,14,18,13.40
2022,04,24,14,19,13.40
2022,04,24,14,20,13.50
2022,04,24,14,21,13.60
2022,04,24,14,22,13.70
2022,04,24,14,23,13.80
2022,04,24,14,24,13.80
2022,04,24,14,25,13.90
2022,04,24,14,26,13.90
2022,04,24,14,27,13.90
2022,04,24,14,28,13.90
2022,04,24,14,29,14.00
2022,04,24,14,30,14.00
2022,04,24,14,31,14.10
2022,04,24,14,32,14.10
2022,04,24,14,33,14.00
2022,04,24,14,34,14.00
2022,04,24,14,35,14.00
2022,04,24,14,36,14.00
2022,04,24,14,37,14.00
2022,04,24,14,38,14.10
2022,04,24,14,39,14.10
2022,04,24,14,40,14.10
2022,04,24,14,41,14.10
2022,04,24,14,42,14.10
2022,04,24,14,43,14.10
2022,04,24,14,44,14.10
2022,04,24,14,45,14.00
2022,04,24,14,46,14.00
2022,04,24,14,47,13.90
2022,04,24,14,48,13.80
2022,04,24,14,49,13.70
2022,04,24,14,50,13.60
2022,04,24,14,51,13.50
2022,04,24,14,52,13.40
2022,04,24,14,53,13.40
2022,04,24,14,54,13.40
2022,04,24,14,55,13.40
2022,04,24,14,56,13.40
2022,04,24,14,57,13.50
2022,04,24,14,58,13.50
2022,04,24,14,59,13.60
2022,04,24,15,00,13.60
2022,04,24,15,01,13.60
2022,04,24,15,02,13.50
2022,04,24,15,03,13.50
2022,04,24,15,04,13.50
2022,04,24,15,05,13.50
2022,04,24,15,06,13.50
2022,04,24,15,07,13.50
2022,04,24,15,08,13.50
2022,04,24,15,09,13.60
2022,04,24,15,10,13.70
2022,04,24,15,11,13.80
2022,04,24,15,12,13.80
2022,04,24,15,13,13.90
2022,04,24,15,14,14.00
2022,04,24,15,15,14.10
2022,04,24,15,16,14.10
2022,04,24,15,17,14.20
2022,04,24,15,18,14.20
2022,04,24,15,19,14.20
2022,04,24,15,20,14.20
2022,04,24,15,21,14.30
2022,04,24,15,22,14.30
2022,04,24,15,23,14.40
2022,04,24,15,24,14.60
2022,04,24,15,25,14.70
2022,04,24,15,26,14.80
2022,04,24,15,27,14.80
2022,04,24,15,28,14.80
2022,04,24,15,29,14.90
2022,04,24,15,30,14.90
2022,04,24,15,31,14.90
2022,04,24,15,32,15.00
2022,04,24,15,33,15.00
2022,04,24,15,34,15.10
2022,04,24,15,35,15.20
2022,04,24,15,36,15.10
2022,04,24,15,37,15.10
2022,04,24,15,38,15.10
2022,04,24,15,39,15.00
2022,04,24,15,40,14.90
2022,04,24,15,41,14.80
2022,04,24,15,42,14.80
2022,04,24,15,43,14.80
2022,04,24,15,44,14.80
2022,04,24,15,45,14.80
2022,04,24,15,46,14.80
2022,04,24,15,47,14.80
2022,04,24,15,48,14.70
2022,04,24,15,49,14.70
2022,04,24,15,50,14.60
2022,04,24,15,51,14.60
2022,04,24,15,52,14.60
2022,04,24,15,53,14.50
2022,04,24,15,54,14.40
2022,04,24,15,55,14.40
2022,04,24,15,56,14.30
2022,04,24,15,57,14.30
2022,04,24,15,58,14.40
2022,04,24,15,59,14.50
2022,04,24,16,00,14.60
2022,04,24,16,01,14.70
2022,04,24,16,02,14.70
2022,04,24,16,03,14.80
2022,04,24,16,04,14.80
2022,04,24,16,05,14.90
2022,04,24,16,06,14.90
2022,04,24,16,07,14.90
2022,04,24,16,08,15.00
2022,04,24,16,09,15.00
2022,04,24,16,10,15.00
2022,04,24,16,11,15.00
2022,04,24,16,12,15.00
2022,04,24,16,13,15.00
2022,04,24,16,14,15.10
2022,04,24,16,15,15.10
2022,04,24,16,16,15.10
2022,04,24,16,17,15.20
2022,04,24,16,18,15.30
2022,04,24,16,19,15.30
2022,04,24,16,20,15.30
2022,04,24,16,21,15.20
2022,04,24,16,22,15.20
2022,04,24,16,23,15.20
2022,04,24,16,24,15.20
2022,04,24,16,25,15.20
2022,04,24,16,26,15.20
2022,04,24,16,27,15.10
2022,04,24,16,28,14.90
2022,04,24,16,29,14.90
2022,04,24,16,30,14.90
2022,04,24,16,31,14.90
2022,04,24,16,32,14.90
2022,04,24,16,33,14.90
2022,04,24,16,34,14.90
2022,04,24,16,35,14.90
2022,04,24,16,36,15.00
2022,04,24,16,37,15.10
2022,04,24,16,38,15.20
2022,04,24,16,39,15.20
2022,04,24,16,40,15.30
2022,04,24,16,41,15.40
2022,04,24,16,42,15.40
2022,04,24,16,43,15.40
2022,04,24,16,44,15.50
2022,04,24,16,45,15.50
2022,04,24,16,46,15.50
2022,04,24,16,47,15.50
2022,04,24,16,48,15.50
2022,04,24,16,49,15.50
2022,04,24,16,50,15.40
2022,04,24,16,51,15.40
2022,04,24,16,52,15.40
2022,04,24,16,53,15.50
2022,04,24,16,54,15.50
2022,04,24,16,55,15.60
2022,04,24,16,56,15.60
2022,04,24,16,57,15.50
2022,04,24,16,58,15.40
2022,04,24,16,59,15.30
2022,04,24,17,00,15.20
2022,04,24,17,01,15.10
2022,04,24,17,02,15.10
2022,04,24,17,03,15.00
2022,04,24,17,04,15.00
2022,04,24,17,05,14.90
2022,04,24,17,06,14.90
2022,04,24,17,07,14.90
2022,04,24,17,08,14.90
2022,04,24,17,09,15.00
2022,04,24,17,10,15.00
2022,04,24,17,11,15.10
2022,04,24,17,12,15.10
2022,04,24,17,13,15.20
2022,04,24,17,14,15.30
2022,04,24,17,15,15.40
2022,04,24,17,16,15.40
2022,04,24,17,17,15.50
2022,04,24,17,18,15.60
2022,04,24,17,19,15.60
2022,04,24,17,20,15.60
2022,04,24,17,21,15.60
2022,04,24,17,22,15.70
2022,04,24,17,23,15.80
2022,04,24,17,24,15.90
2022,04,24,17,25,16.10
2022,04,24,17,26,16.20
2022,04,24,17,27,16.30
2022,04,24,17,28,16.40
2022,04,24,17,29,16.40
2022,04,24,17,30,16.40
2022,04,24,17,31,16.40
2022,04,24,17,32,16.40
2022,04,24,17,33,16.30
2022,04,24,17,34,16.30
2022,04,24,17,35,16.20
2022,04,24,17,36,16.10
2022,04,24,17,37,16.10
2022,04,24,17,38,16.00
2022,04,24,17,39,16.00
2022,04,24,17,40,15.90
2022,04,24,17,41,15.90
2022,04,24,17,42,15.90
2022,04,24,17,43,15.90
2022,04,24,17,44,15.90